Perry, FL

4:33 AM EST on February 14, 2016 (GMT -0500)
Perry

Weather History for K40J - March, 2013

Change the Weather History Date:

Monday, March 18, 2013

  Actual Average (KCTY) Record (KCTY)
Temperature  
Mean Temperature 68 °F 63 °F  
Max Temperature 79 °F 76 °F 89 °F (2015)
Min Temperature 59 °F 49 °F 36 °F (2005)
Degree Days  
Heating Degree Days 0 4  
Month to date heating degree days 95  
Since 1 July heating degree days 1215  
Cooling Degree Days 4 1  
Month to date cooling degree days 18  
Year to date cooling degree days 45  
Growing Degree Days 18 (Base 50)    
Moisture  
Dew Point 63 °F    
Average Humidity 88    
Maximum Humidity 100    
Minimum Humidity 57    
Precipitation  
Precipitation 0.01 in 0.14 in 1.26 in (1998)
Month to date precipitation 2.41  
Year to date precipitation 9.72  
Sea Level Pressure  
Sea Level Pressure 29.98 in    
Wind  
Wind Speed 5 mph (South)    
Max Wind Speed 18 mph    
Max Gust Speed 24 mph    
Visibility 8 miles    
Events Rain    
T = Trace of Precipitation, MM = Missing Value Source: NWS Daily Summary

Daily Weather History Graph

Daily Weather History Graph

Search for Another Location

Airport or City:

Trip Planner

Search our weather history database for the weather conditions in past years. The results will help you decide how hot, cold, wet, or windy it might be!

Date:

Astronomy

Mar. 18, 2013 Rise Set
Actual Time 7:40 AM EDT 7:44 PM EDT
Civil Twilight 7:16 AM EDT 8:08 PM EDT
Nautical Twilight 6:48 AM EDT 8:36 PM EDT
Astronomical Twilight 6:20 AM EDT 9:04 PM EDT
Moon 12:02 PM EDT (3/18) 1:19 AM EDT (3/18)
Length of Visible Light 12h 52m
Length of Day
12h 04m
Waxing Crescent, 40% of the Moon is Illuminated
Mar 18
Waxing Crescent
Mar 19
First Quarter
Mar 27
Full
Apr 3
Last Quarter
Apr 10
New

Hourly Weather History & Observations

Time (EDT) Temp. Dew Point Humidity Pressure Visibility Wind Dir Wind Speed Gust Speed Precip Events Conditions
12:15 AM 60.8 °F 60.8 °F 100% 30.04 in 10.0 mi SE 3.5 mph - N/A   Overcast
12:35 AM 60.8 °F 60.8 °F 100% 30.04 in 10.0 mi SSE 3.5 mph - N/A   Overcast
12:53 AM 60.1 °F 57.9 °F 93% 30.02 in - SE 4.6 mph - N/A   Unknown
12:55 AM 60.8 °F 60.8 °F 100% 30.03 in 10.0 mi SE 4.6 mph - N/A Rain Light Rain
1:15 AM 60.8 °F 60.8 °F 100% 30.02 in 7.0 mi SE 4.6 mph - N/A Rain Light Rain
1:35 AM 60.8 °F 60.8 °F 100% 30.01 in 7.0 mi SE 4.6 mph - N/A   Mostly Cloudy
1:53 AM 60.1 °F 57.9 °F 93% 30.01 in - Calm Calm - N/A   Unknown
1:55 AM 60.8 °F 60.8 °F 100% 30.02 in 7.0 mi Calm Calm - N/A Rain Rain
2:15 AM 60.8 °F 60.8 °F 100% 30.01 in 5.0 mi Calm Calm - N/A   Drizzle
2:35 AM 60.8 °F 60.8 °F 100% 30.00 in 4.0 mi Calm Calm - N/A   Light Drizzle
2:53 AM 60.1 °F 57.9 °F 93% 29.99 in - SSE 3.5 mph - 0.01 in   Unknown
2:55 AM 60.8 °F 60.8 °F 100% 30.00 in 5.0 mi SSE 3.5 mph - 0.01 in   Light Drizzle
3:15 AM 60.8 °F 60.8 °F 100% 30.00 in 5.0 mi Calm Calm - N/A   Light Drizzle
3:35 AM 60.8 °F 60.8 °F 100% 30.00 in 5.0 mi SSE 3.5 mph - N/A   Overcast
3:53 AM 60.1 °F 57.9 °F 93% 29.99 in - SE 3.5 mph - N/A   Unknown
3:55 AM 60.8 °F 60.8 °F 100% 30.00 in 5.0 mi Calm Calm - N/A   Overcast
4:15 AM 60.8 °F 60.8 °F 100% 30.00 in 3.0 mi Calm Calm - N/A   Overcast
4:35 AM 60.8 °F 60.8 °F 100% 29.99 in 4.0 mi SE 3.5 mph - N/A   Overcast
4:53 AM 59.0 °F 57.9 °F 96% 29.97 in - SE 4.6 mph - N/A   Unknown
4:55 AM 60.8 °F 60.8 °F 100% 29.98 in 3.0 mi SE 3.5 mph - N/A   Overcast
5:15 AM 60.8 °F 60.8 °F 100% 29.98 in 4.0 mi SE 3.5 mph - N/A   Overcast
5:35 AM 60.8 °F 60.8 °F 100% 29.98 in 7.0 mi Calm Calm - N/A   Overcast
5:53 AM 60.1 °F 57.9 °F 93% 29.98 in - SE 3.5 mph - N/A   Unknown
5:55 AM 60.8 °F 60.8 °F 100% 29.99 in 7.0 mi SE 3.5 mph - N/A   Mostly Cloudy
6:15 AM 60.8 °F 60.8 °F 100% 30.00 in 7.0 mi Calm Calm - N/A   Overcast
6:35 AM 60.8 °F 60.8 °F 100% 30.00 in 5.0 mi Calm Calm - N/A   Mostly Cloudy
6:53 AM 60.1 °F 57.0 °F 90% 29.99 in - Calm Calm - N/A   Unknown
6:55 AM 60.8 °F 60.8 °F 100% 30.00 in 7.0 mi Calm Calm - N/A   Scattered Clouds
7:15 AM 60.8 °F 60.8 °F 100% 30.00 in 7.0 mi Calm Calm - N/A   Mostly Cloudy
7:35 AM 60.8 °F 60.8 °F 100% 30.01 in 7.0 mi Calm Calm - N/A   Overcast
7:53 AM 60.1 °F 57.0 °F 90% 30.00 in - East 3.5 mph - N/A   Unknown
7:55 AM 60.8 °F 60.8 °F 100% 30.01 in 5.0 mi ESE 4.6 mph - N/A   Scattered Clouds
8:15 AM 60.8 °F 60.8 °F 100% 30.02 in 5.0 mi SE 5.8 mph - N/A   Scattered Clouds
8:35 AM 60.8 °F 60.8 °F 100% 30.03 in 7.0 mi SE 3.5 mph - N/A   Overcast
8:53 AM 61.0 °F 57.9 °F 90% 30.02 in - ESE 4.6 mph - N/A   Unknown
8:55 AM 60.8 °F 60.8 °F 100% 30.04 in 10.0 mi SE 4.6 mph - N/A   Overcast
9:15 AM 60.8 °F 60.8 °F 100% 30.04 in 10.0 mi SE 4.6 mph - N/A   Overcast
9:35 AM 62.6 °F 62.6 °F 100% 30.04 in 10.0 mi ESE 4.6 mph - N/A   Overcast
9:53 AM 62.1 °F 57.9 °F 86% 30.03 in - ESE 4.6 mph - N/A   Unknown
9:55 AM 62.6 °F 62.6 °F 100% 30.04 in 10.0 mi SE 4.6 mph - N/A   Overcast
10:15 AM 62.6 °F 62.6 °F 100% 30.04 in 10.0 mi SE 3.5 mph - N/A   Mostly Cloudy
10:35 AM 66.2 °F 64.4 °F 94% 30.04 in 10.0 mi SSE 6.9 mph - N/A   Scattered Clouds
10:53 AM 66.9 °F 61.0 °F 81% 30.03 in - South 6.9 mph - N/A   Unknown
10:55 AM 68.0 °F 64.4 °F 88% 30.04 in 10.0 mi SSE 5.8 mph - N/A   Scattered Clouds
11:15 AM 69.8 °F 64.4 °F 83% 30.04 in 10.0 mi South 5.8 mph - N/A   Mostly Cloudy
11:35 AM 69.8 °F 64.4 °F 83% 30.04 in 10.0 mi SSW 9.2 mph - N/A   Mostly Cloudy
11:53 AM 70.0 °F 62.1 °F 76% 30.02 in - SSW 10.4 mph - N/A   Unknown
11:55 AM 69.8 °F 64.4 °F 83% 30.04 in 10.0 mi SW 10.4 mph - N/A   Mostly Cloudy
12:15 PM 71.6 °F 64.4 °F 78% 30.03 in 10.0 mi SW 6.9 mph - N/A   Mostly Cloudy
12:35 PM 71.6 °F 64.4 °F 78% 30.02 in 10.0 mi SSW 13.8 mph 17.3 mph N/A   Mostly Cloudy
12:53 PM 72.0 °F 62.1 °F 71% 30.01 in - SSW 11.5 mph - N/A   Unknown
12:55 PM 71.6 °F 64.4 °F 78% 30.02 in 10.0 mi SSW 11.5 mph 17.3 mph N/A   Scattered Clouds
1:15 PM 73.4 °F 66.2 °F 78% 30.01 in 10.0 mi SSW 10.4 mph - N/A   Scattered Clouds
1:35 PM 77.0 °F 64.4 °F 65% 30.00 in 10.0 mi SSW 12.7 mph 19.6 mph N/A   Scattered Clouds
1:53 PM 78.1 °F 62.1 °F 58% 29.98 in - South 17.3 mph 23.0 mph N/A   Unknown
1:55 PM 77.0 °F 64.4 °F 65% 30.00 in 10.0 mi SSW 13.8 mph 21.9 mph N/A   Scattered Clouds
2:15 PM 77.0 °F 64.4 °F 65% 29.98 in 10.0 mi SSW 16.1 mph 24.2 mph N/A   Mostly Cloudy
2:35 PM 77.0 °F 64.4 °F 65% 29.97 in 10.0 mi SSW 15.0 mph - N/A   Scattered Clouds
2:53 PM 75.9 °F 61.0 °F 60% 29.94 in - SSW 13.8 mph 21.9 mph N/A   Unknown
2:55 PM 77.0 °F 64.4 °F 65% 29.96 in 10.0 mi SSW 15.0 mph 20.7 mph N/A   Clear
3:15 PM 77.0 °F 64.4 °F 65% 29.95 in 10.0 mi SW 12.7 mph 19.6 mph N/A   Clear
3:35 PM 78.8 °F 64.4 °F 61% 29.94 in 10.0 mi SSW 12.7 mph 18.4 mph N/A   Clear
3:53 PM 78.1 °F 62.1 °F 58% 29.91 in - SSW 15.0 mph 23.0 mph N/A   Unknown
3:55 PM 78.8 °F 62.6 °F 57% 29.92 in 10.0 mi SW 18.4 mph 24.2 mph N/A   Scattered Clouds
4:15 PM 78.8 °F 62.6 °F 57% 29.93 in 10.0 mi SW 16.1 mph 20.7 mph N/A   Clear
4:35 PM 78.8 °F 64.4 °F 61% 29.93 in 10.0 mi South 15.0 mph 19.6 mph N/A   Scattered Clouds
4:53 PM 77.0 °F 64.0 °F 64% 29.91 in - South 15.0 mph 23.0 mph N/A   Unknown
4:55 PM 77.0 °F 66.2 °F 69% 29.92 in 10.0 mi SSW 16.1 mph 21.9 mph N/A   Scattered Clouds
5:15 PM 77.0 °F 68.0 °F 74% 29.93 in 10.0 mi South 13.8 mph 17.3 mph N/A   Scattered Clouds
5:35 PM 77.0 °F 68.0 °F 74% 29.93 in 10.0 mi SSW 10.4 mph - N/A   Scattered Clouds
5:53 PM 75.0 °F 64.0 °F 69% 29.91 in - SSW 12.7 mph - N/A   Unknown
5:55 PM 75.2 °F 68.0 °F 78% 29.92 in 10.0 mi SSW 12.7 mph - N/A   Scattered Clouds
6:15 PM 73.4 °F 68.0 °F 83% 29.92 in 10.0 mi South 10.4 mph - N/A   Scattered Clouds
6:35 PM 71.6 °F 68.0 °F 88% 29.91 in 10.0 mi South 12.7 mph 16.1 mph N/A   Mostly Cloudy
6:53 PM 71.1 °F 64.0 °F 78% 29.89 in - South 10.4 mph - N/A   Unknown
6:55 PM 71.6 °F 68.0 °F 88% 29.90 in 10.0 mi South 9.2 mph - N/A   Scattered Clouds
7:15 PM 71.6 °F 68.0 °F 88% 29.90 in 10.0 mi South 8.1 mph - N/A   Clear
7:35 PM 69.8 °F 66.2 °F 88% 29.90 in 10.0 mi South 8.1 mph - N/A   Clear
7:53 PM 69.1 °F 63.0 °F 81% 29.88 in - South 5.8 mph - N/A   Unknown
7:55 PM 69.8 °F 66.2 °F 88% 29.90 in 10.0 mi SSW 3.5 mph - N/A   Clear
8:15 PM 68.0 °F 66.2 °F 94% 29.89 in 10.0 mi South 6.9 mph - N/A   Clear
8:35 PM 68.0 °F 66.2 °F 94% 29.89 in 10.0 mi South 5.8 mph - N/A   Clear
8:53 PM 66.0 °F 62.1 °F 87% 29.89 in - SW 4.6 mph - N/A   Unknown
8:55 PM 68.0 °F 66.2 °F 94% 29.90 in 10.0 mi SW 3.5 mph - N/A   Clear
9:15 PM 66.2 °F 66.2 °F 100% 29.92 in 10.0 mi South 4.6 mph - N/A   Clear
9:35 PM 66.2 °F 64.4 °F 94% 29.93 in 10.0 mi South 5.8 mph - N/A   Clear
9:53 PM 64.9 °F 61.0 °F 87% 29.91 in - South 8.1 mph - N/A   Unknown
9:55 PM 64.4 °F 64.4 °F 100% 29.92 in 10.0 mi South 8.1 mph - N/A   Clear
10:15 PM 64.4 °F 64.4 °F 100% 29.93 in 10.0 mi South 5.8 mph - N/A   Clear
10:35 PM 64.4 °F 64.4 °F 100% 29.93 in 10.0 mi South 5.8 mph - N/A   Clear
10:53 PM 64.0 °F 61.0 °F 90% 29.92 in - South 5.8 mph - N/A   Unknown
10:55 PM 64.4 °F 64.4 °F 100% 29.93 in 7.0 mi SSW 5.8 mph - N/A   Scattered Clouds
11:15 PM 64.4 °F 64.4 °F 100% 29.97 in 7.0 mi NW 4.6 mph - N/A   Mostly Cloudy
11:53 PM 64.0 °F 61.0 °F 90% 29.94 in - SW 3.5 mph - N/A   Unknown
11:55 PM 64.4 °F 64.4 °F 100% 29.95 in 7.0 mi West 3.5 mph - N/A   Mostly Cloudy